Flag for United Kingdom Weather past 2 weeks in Ely, England, United Kingdom

Now
49 °F

Overcast.


Feels Like: 46 °F
Forecast: 41 / 59 °F
Wind: 7 mph from Southwest

Location: Mildenhall Royal Air Force Base

Current Time: May 29, 2015 at 2:19:44 AM

Latest Report: May 29, 2015 at 12:58 AM


Visibility: N/A

Pressure: 29.88 "Hg

Humidity: 66%

Dew point: 38 °F

Location of ElyLocation

Historic Weather in Ely — Graph

°F

Ely temperature yesterday

Maximum temperature yesterday: 62 °F (at 3:58 PM)
Minimum temperature yesterday: 49 °F (at 11:58 PM)
Average temperature yesterday: 55 °F

Past Weeks' High & Low Weather Summary

 TemperatureHumidityPressure
High69 °F (May 22, 3:58 PM)98% (May 14, 5:58 AM)30.32 "Hg (May 14, 5:58 AM)
Low36 °F (May 14, 4:58 AM)37% (May 28, 3:58 PM)29.49 "Hg (May 18, 1:58 PM)
Average53 °F73%30.06 "Hg
* Reported May 14 12:58 AM — May 29 12:58 AM, Ely, Weather by CustomWeather, © 2015

Note: Actual official high and low records may vary slightly from our data, if they occured in-between our weather recording intervals... More about our weather records

Advertising

Ely weather history for previous 24 hours

 ConditionsComfort  
Time TempWeatherWind HumidityBarometerVisibility
12:58 AM
Fri, May 29
49 °FOvercast.7 mph66%29.88 "HgN/A
11:58 PM
Thu, May 28
49 °FPassing clouds.3 mph64%29.90 "HgN/A
10:58 PM50 °FClear.6 mph65%29.90 "HgN/A
9:58 PM53 °FSunny.6 mph54%29.91 "HgN/A
8:58 PM54 °FSunny.8 mph53%29.90 "HgN/A
7:58 PM58 °FPassing clouds.15 mph44%29.90 "HgN/A
6:58 PM60 °FPassing clouds.16 mph40%29.90 "HgN/A
5:58 PM61 °FMostly cloudy.15 mph40%29.90 "HgN/A
4:58 PM60 °FBroken clouds.14 mph46%29.91 "HgN/A
3:58 PM62 °FScattered clouds.17 mph37%29.92 "HgN/A
3:02 PM61 °FBroken clouds.16 mph45%29.91 "HgN/A
1:58 PM60 °FBroken clouds.14 mph46%29.92 "HgN/A
12:58 PM60 °FPartly sunny.15 mph46%29.92 "HgN/A
12:03 PM59 °FMostly cloudy.14 mph51%29.92 "HgN/A
11:58 AM58 °FMore clouds than sun.17 mph50%29.93 "HgN/A
10:58 AM58 °FPartly sunny.18 mph52%29.92 "HgN/A
9:58 AM57 °FBroken clouds.17 mph55%29.92 "HgN/A
9:03 AM54 °FBroken clouds.14 mph67%29.91 "HgN/A
8:58 AM54 °FBroken clouds.17 mph64%29.92 "HgN/A
7:58 AM54 °FPassing clouds.22 mph70%29.91 "HgN/A
6:58 AM52 °FScattered clouds.10 mph83%29.90 "HgN/A
5:58 AM51 °FSunny.9 mph92%29.89 "HgN/A
4:58 AM50 °FPassing clouds.9 mph93%29.87 "HgN/A
3:58 AM51 °FOvercast.9 mph86%29.88 "HgN/A
3:03 AM52 °FPassing clouds.12 mph82%29.88 "HgN/A
2:58 AM51 °FPartly cloudy.10 mph83%29.89 "HgN/A
Weather by CustomWeather, © 2015

See weather overviewHow to use our weather pages